"startDT [UTC]","vpos","CH4 [ppm]","stdev(CH4) [ppm]","CO2 [ppm]","stdev(CO2) [ppm]","H2O [ppm]","stdev(H2O)","p_LGR [torr]","T_LGR [C]","mt1_LGR [us]","mt2_LGR [us]","T_ECpre [C]","T_EC1 [C]","T_EC2 [C]","p_inlet [hPa]","p_in [hPa]","p_out [hPa]","T_inlet [C]","RH_inlet [%]","dwpt_inlet [C]","T_vent [C]","RH_vent [%]","dwpt_vent [C]","flow_vent [l min-1]","flow_inlet [l min-1]","dwpt_sample [C]","T_room [C]"
2012-09-27 00:00:00,0.0,1.8840,0.0013,400.15,0.26,258.3,34.7,138.16,26.74,24.62,36.40,0.04,-272.74,-272.75,-38,560,-918,20.5,34.6,4.4,20.7,36.1,5.1,5.73,2.33,-23.1,26.0
2012-09-27 00:01:00,0.0,1.8840,0.0011,400.07,0.28,256.7,36.3,138.17,26.74,24.62,36.40,0.04,-272.73,-272.74,-38,559,-917,20.6,34.6,4.4,20.7,36.1,5.2,5.73,2.34,-23.1,26.0
2012-09-27 00:02:00,0.0,1.8832,0.0012,400.11,0.25,252.7,41.1,138.17,26.74,24.62,36.40,0.04,-272.75,-272.75,-38,559,-918,20.6,34.6,4.4,20.7,36.1,5.1,5.73,2.37,-23.1,26.0
2012-09-27 00:03:00,0.0,1.8833,0.0013,400.15,0.29,247.5,33.1,138.17,26.74,24.62,36.40,0.04,-272.74,-272.75,-38,559,-917,20.6,34.6,4.4,20.7,36.1,5.2,5.73,2.40,-23.1,26.0
2012-09-27 00:04:00,0.0,1.8837,0.0009,400.10,0.32,253.3,36.9,138.17,26.74,24.62,36.40,0.04,-272.75,-272.74,-38,560,-918,20.6,34.7,4.4,20.7,36.2,5.2,5.73,2.41,-23.1,26.0
2012-09-27 00:05:00,0.0,1.8838,0.0009,400.21,0.28,263.2,32.2,138.17,26.74,24.63,36.39,0.04,-272.75,-272.75,-39,559,-918,20.6,34.7,4.4,20.7,36.2,5.2,5.73,2.39,-23.1,26.0
2012-09-27 00:06:00,0.0,1.8843,0.0009,400.21,0.24,249.7,37.2,138.17,26.74,24.63,36.40,0.04,-272.75,-272.75,-39,560,-918,20.6,34.7,4.5,20.7,36.2,5.2,5.73,2.35,-23.1,26.0
2012-09-27 00:07:00,0.0,1.8851,0.0009,400.12,0.30,262.7,29.8,138.17,26.74,24.62,36.40,0.04,-272.74,-272.75,-39,559,-918,20.6,34.7,4.5,20.7,36.2,5.2,5.73,2.34,-23.1,26.0
2012-09-27 00:08:00,0.0,1.8852,0.0013,400.22,0.30,254.5,35.3,138.17,26.73,24.62,36.40,0.04,-272.74,-272.74,-39,559,-917,20.6,34.8,4.5,20.7,36.3,5.2,5.73,2.33,-23.1,26.0
2012-09-27 00:09:00,0.0,1.8882,0.0007,400.27,0.29,260.1,30.1,138.17,26.73,24.62,36.40,0.04,-272.75,-272.75,-39,559,-918,20.6,34.8,4.5,20.7,36.3,5.2,5.73,2.37,-23.1,25.9
2012-09-27 00:10:00,0.0,1.8884,0.0012,400.24,0.25,253.9,38.8,138.17,26.73,24.62,36.40,0.04,-272.74,-272.75,-39,559,-917,20.6,34.8,4.5,20.7,36.3,5.2,5.73,2.39,-23.1,25.9
2012-09-27 00:11:00,0.0,1.8891,0.0014,400.23,0.26,251.5,36.7,138.17,26.73,24.63,36.40,0.04,-272.74,-272.74,-39,560,-918,20.5,34.8,4.5,20.7,36.3,5.2,5.73,2.40,-23.1,26.0
2012-09-27 00:12:00,0.0,1.8887,0.0013,400.23,0.31,257.4,30.7,138.17,26.73,24.63,36.40,0.04,-272.75,-272.75,-39,560,-917,20.5,34.8,4.5,20.7,36.4,5.2,5.73,2.40,-23.1,25.9
2012-09-27 00:13:00,0.0,1.8871,0.0013,400.18,0.27,256.1,32.8,138.17,26.73,24.62,36.40,0.04,-272.75,-272.75,-39,559,-917,20.6,34.9,4.5,20.7,36.4,5.2,5.73,2.37,-23.1,25.9
2012-09-27 00:14:00,0.0,1.8866,0.0010,399.99,0.30,253.6,31.5,138.17,26.73,24.62,36.40,0.04,-272.75,-272.75,-39,560,-918,20.5,34.9,4.5,20.7,36.4,5.2,5.73,2.34,-23.1,25.9
2012-09-27 00:15:00,0.0,1.8871,0.0022,400.12,0.28,257.2,33.3,138.17,26.73,24.62,36.40,0.04,-272.75,-272.75,-39,559,-918,20.5,34.9,4.5,20.7,36.5,5.2,5.73,2.34,-23.1,25.9
2012-09-27 00:16:00,0.0,1.8849,0.0010,400.12,0.29,254.6,32.1,138.16,26.73,24.63,36.39,0.04,-272.75,-272.75,-39,559,-918,20.5,34.9,4.5,20.7,36.5,5.2,5.73,2.35,-23.1,25.9
2012-09-27 00:17:00,0.0,1.8839,0.0013,399.98,0.29,255.1,31.3,138.17,26.74,24.62,36.40,0.04,-272.74,-272.74,-39,559,-917,20.5,34.9,4.5,20.7,36.5,5.2,5.73,2.38,-23.1,25.9
2012-09-27 00:18:00,0.0,1.8838,0.0012,399.94,0.29,262.9,32.5,138.16,26.74,24.62,36.41,0.04,-272.74,-272.74,-39,559,-918,20.6,34.9,4.5,20.7,36.5,5.3,5.73,2.41,-23.1,26.0
2012-09-27 00:19:00,0.0,1.8849,0.0008,400.02,0.29,252.0,34.8,138.16,26.74,24.62,36.40,0.04,-272.74,-272.75,-39,559,-917,20.6,34.8,4.5,20.7,36.4,5.2,5.73,2.39,-23.1,25.9
2012-09-27 00:20:00,0.0,1.8836,0.0010,400.00,0.32,237.3,37.5,138.16,26.74,24.62,36.40,0.04,-272.75,-272.75,-39,559,-918,20.6,34.8,4.5,20.7,36.4,5.2,5.73,2.37,-23.1,26.0
2012-09-27 00:21:00,0.0,1.8847,0.0017,399.96,0.28,256.3,36.5,138.16,26.75,24.62,36.40,0.04,-272.74,-272.74,-39,559,-917,20.6,34.8,4.5,20.7,36.4,5.2,5.73,2.34,-23.1,26.0
2012-09-27 00:22:00,0.0,1.8856,0.0010,399.98,0.24,262.3,36.6,138.16,26.75,24.62,36.40,0.04,-272.74,-272.74,-39,559,-918,20.6,34.8,4.5,20.7,36.4,5.2,5.73,2.34,-23.1,26.0
2012-09-27 00:23:00,0.0,1.8847,0.0014,399.95,0.25,251.5,35.7,138.16,26.74,24.63,36.40,0.04,-272.75,-272.75,-39,559,-917,20.6,34.8,4.5,20.7,36.4,5.2,5.73,2.35,-23.1,26.0
2012-09-27 00:24:00,0.0,1.8850,0.0018,399.94,0.27,264.7,40.5,138.16,26.75,24.62,36.40,0.04,-272.74,-272.75,-39,559,-918,20.6,34.8,4.5,20.7,36.4,5.2,5.73,2.38,-23.1,26.0
2012-09-27 00:25:00,0.0,1.8837,0.0011,400.01,0.23,259.1,37.6,138.16,26.75,24.62,36.40,0.04,-272.75,-272.74,-38,559,-918,20.6,34.8,4.5,20.7,36.4,5.2,5.73,2.40,-23.1,26.0
2012-09-27 00:26:00,0.0,1.8830,0.0009,399.90,0.26,252.9,27.9,138.16,26.75,24.63,36.41,0.04,-272.74,-272.74,-38,559,-918,20.6,34.8,4.5,20.7,36.4,5.2,5.73,2.39,-23.1,25.9
2012-09-27 00:27:00,0.0,1.8840,0.0012,400.03,0.27,253.0,37.3,138.17,26.75,24.63,36.40,0.04,-272.74,-272.74,-38,559,-917,20.6,34.8,4.5,20.7,36.3,5.2,5.73,2.37,-23.1,26.0
2012-09-27 00:28:00,0.0,1.8839,0.0009,399.87,0.24,252.2,37.7,138.17,26.75,24.62,36.40,0.04,-272.74,-272.75,-39,560,-918,20.6,34.7,4.5,20.7,36.3,5.2,5.73,2.34,-23.1,26.0
2012-09-27 00:29:00,0.0,1.8837,0.0008,399.96,0.24,256.8,31.1,138.17,26.75,24.62,36.40,0.04,-272.75,-272.75,-39,560,-918,20.6,34.7,4.5,20.7,36.3,5.2,5.73,2.34,-23.1,26.0
2012-09-27 00:30:00,0.0,1.8835,0.0012,399.93,0.29,248.5,33.5,138.17,26.75,24.62,36.40,0.04,-272.74,-272.75,-39,560,-918,20.6,34.7,4.5,20.7,36.3,5.2,5.73,2.36,-23.1,26.0
2012-09-27 00:31:00,0.0,1.8846,0.0011,399.91,0.26,246.3,32.2,138.17,26.75,24.62,36.40,0.04,-272.75,-272.74,-39,559,-917,20.6,34.7,4.4,20.7,36.2,5.2,5.73,2.38,-23.1,25.9
2012-09-27 00:32:00,0.0,1.8843,0.0012,399.90,0.28,257.3,33.7,138.17,26.75,24.62,36.41,0.04,-272.75,-272.75,-39,559,-918,20.6,34.7,4.4,20.7,36.2,5.2,5.73,2.41,-23.1,26.0
2012-09-27 00:33:00,0.0,1.8842,0.0010,399.99,0.31,262.8,35.0,138.17,26.75,24.63,36.40,0.04,-272.75,-272.75,-39,559,-918,20.6,34.7,4.4,20.7,36.2,5.2,5.73,2.39,-23.1,26.0
2012-09-27 00:34:00,0.0,1.8852,0.0011,400.02,0.26,261.7,40.1,138.17,26.75,24.62,36.40,0.04,-272.74,-272.75,-39,559,-917,20.6,34.7,4.5,20.7,36.2,5.2,5.73,2.37,-23.1,26.0
2012-09-27 00:35:00,0.0,1.8849,0.0010,400.02,0.34,265.5,29.2,138.17,26.75,24.62,36.40,0.04,-272.75,-272.75,-39,560,-918,20.6,34.7,4.5,20.7,36.3,5.2,5.73,2.35,-23.1,26.0
2012-09-27 00:36:00,0.0,1.8847,0.0010,399.87,0.31,254.8,35.5,138.17,26.75,24.62,36.40,0.04,-272.75,-272.75,-39,559,-917,20.6,34.8,4.5,20.7,36.3,5.2,5.73,2.34,-23.1,26.0
2012-09-27 00:37:00,0.0,1.8846,0.0009,399.94,0.24,254.3,42.9,138.17,26.75,24.62,36.40,0.04,-272.74,-272.75,-38,560,-918,20.6,34.8,4.5,20.7,36.3,5.2,5.73,2.35,-23.1,26.0
2012-09-27 00:38:00,0.0,1.8844,0.0014,399.96,0.28,260.0,31.7,138.17,26.75,24.63,36.41,0.04,-272.74,-272.75,-38,559,-917,20.6,34.8,4.5,20.7,36.3,5.2,5.73,2.38,-23.1,26.0
2012-09-27 00:39:00,0.0,1.8841,0.0010,399.98,0.33,260.5,33.7,138.17,26.75,24.62,36.40,0.04,-272.75,-272.75,-38,560,-918,20.6,34.8,4.5,20.7,36.3,5.2,5.73,2.41,-23.1,26.0
2012-09-27 00:40:00,1.0,1.8822,0.0028,386.58,9.33,241.8,31.7,138.17,26.75,24.62,36.41,0.04,-272.75,-272.75,-38,620,-918,20.6,34.8,4.5,20.7,36.4,5.3,5.73,2.36,-23.1,26.0
2012-09-27 00:41:00,1.0,1.8790,0.0007,375.97,0.25,235.1,33.8,138.17,26.75,24.62,36.41,0.04,-272.75,-272.75,-39,618,-918,20.6,34.8,4.5,20.7,36.4,5.3,5.73,2.38,-23.1,25.9
2012-09-27 00:42:00,1.0,1.8788,0.0008,375.97,0.23,225.3,32.9,138.17,26.75,24.63,36.41,0.04,-272.74,-272.75,-39,617,-918,20.6,34.8,4.5,20.7,36.4,5.3,5.73,2.34,-23.1,25.9
2012-09-27 00:43:00,1.0,1.8792,0.0012,375.97,0.26,226.5,36.6,138.17,26.74,24.62,36.41,0.04,-272.75,-272.75,-39,617,-918,20.6,34.8,4.5,20.7,36.4,5.2,5.73,2.33,-23.1,25.9
2012-09-27 00:44:00,1.0,1.8792,0.0009,376.00,0.29,222.2,37.5,138.17,26.74,24.62,36.41,0.04,-272.74,-272.75,-39,617,-918,20.6,34.7,4.5,20.7,36.3,5.2,5.73,2.34,-23.2,25.9
2012-09-27 00:45:00,0.0,1.8814,0.0016,389.02,9.41,246.8,35.5,138.17,26.74,24.62,36.41,0.04,-272.74,-272.74,-39,559,-918,20.6,34.7,4.5,20.7,36.3,5.2,5.73,2.37,-23.2,25.9
2012-09-27 00:46:00,0.0,1.8834,0.0009,399.93,0.29,250.0,29.7,138.17,26.74,24.62,36.40,0.04,-272.75,-272.75,-39,559,-918,20.6,34.7,4.5,20.7,36.3,5.2,5.73,2.40,-23.1,25.9
2012-09-27 00:47:00,0.0,1.8835,0.0010,399.90,0.30,239.6,31.9,138.17,26.74,24.62,36.41,0.04,-272.74,-272.75,-39,559,-918,20.6,34.7,4.5,20.7,36.3,5.2,5.73,2.40,-23.1,25.9
2012-09-27 00:48:00,0.0,1.8846,0.0009,399.96,0.30,252.2,36.1,138.17,26.74,24.62,36.40,0.04,-272.74,-272.75,-38,559,-918,20.6,34.7,4.4,20.7,36.3,5.2,5.73,2.38,-23.2,25.9
2012-09-27 00:49:00,0.0,1.8851,0.0009,399.85,0.25,258.2,38.9,138.17,26.74,24.62,36.41,0.04,-272.75,-272.74,-38,559,-917,20.6,34.7,4.5,20.7,36.3,5.2,5.73,2.35,-23.1,25.9
2012-09-27 00:50:00,0.0,1.8860,0.0012,400.03,0.29,259.1,32.5,138.17,26.75,24.62,36.40,0.04,-272.75,-272.74,-38,559,-918,20.6,34.8,4.5,20.7,36.4,5.2,5.73,2.33,-23.1,25.9
2012-09-27 00:51:00,0.0,1.8849,0.0009,399.92,0.28,252.5,36.8,138.16,26.75,24.62,36.40,0.04,-272.75,-272.74,-38,559,-918,20.6,34.8,4.5,20.7,36.4,5.2,5.73,2.34,-23.1,25.9
2012-09-27 00:52:00,0.0,1.8857,0.0008,399.88,0.32,253.9,32.6,138.16,26.75,24.62,36.41,0.04,-272.74,-272.74,-39,559,-918,20.6,34.8,4.5,20.7,36.4,5.3,5.73,2.38,-23.1,26.0
2012-09-27 00:53:00,0.0,1.8864,0.0010,400.03,0.26,251.9,37.0,138.16,26.75,24.62,36.40,0.04,-272.74,-272.75,-39,559,-917,20.6,34.9,4.5,20.7,36.5,5.3,5.73,2.40,-23.1,26.0
2012-09-27 00:54:00,0.0,1.8881,0.0010,400.03,0.28,259.6,33.4,138.16,26.75,24.62,36.41,0.04,-272.74,-272.75,-39,559,-918,20.6,34.9,4.5,20.7,36.5,5.3,5.73,2.41,-23.1,25.9
2012-09-27 00:55:00,0.0,1.8885,0.0010,399.96,0.28,255.0,35.3,138.16,26.75,24.62,36.40,0.04,-272.75,-272.75,-39,559,-917,20.6,34.9,4.6,20.7,36.5,5.3,5.73,2.38,-23.1,25.9
2012-09-27 00:56:00,0.0,1.8876,0.0013,400.02,0.28,254.3,37.4,138.16,26.76,24.63,36.40,0.04,-272.75,-272.75,-39,559,-918,20.6,35.0,4.6,20.7,36.6,5.3,5.73,2.35,-23.1,26.0
2012-09-27 00:57:00,0.0,1.8864,0.0009,399.98,0.27,261.4,33.2,138.16,26.76,24.62,36.40,0.04,-272.74,-272.75,-39,559,-917,20.6,35.0,4.6,20.7,36.7,5.4,5.73,2.33,-23.1,25.9
2012-09-27 00:58:00,0.0,1.8864,0.0009,399.92,0.31,253.2,37.5,138.16,26.76,24.62,36.41,0.04,-272.74,-272.74,-39,559,-918,20.6,35.1,4.6,20.7,36.7,5.4,5.73,2.34,-23.1,25.9
2012-09-27 00:59:00,0.0,1.8868,0.0010,400.07,0.24,256.6,28.2,138.16,26.76,24.62,36.40,0.04,-272.75,-272.75,-39,559,-917,20.6,35.1,4.6,20.7,36.7,5.4,5.73,2.37,-23.1,26.0
2012-09-27 01:00:00,0.0,1.8855,0.0010,399.99,0.28,264.1,37.7,138.16,26.76,24.63,36.40,0.04,-272.75,-272.75,-38,559,-917,20.6,35.1,4.6,20.7,36.7,5.4,5.73,2.40,-23.1,26.0
2012-09-27 01:01:00,0.0,1.8850,0.0009,399.99,0.27,256.5,33.8,138.16,26.76,24.63,36.40,0.04,-272.74,-272.75,-38,559,-917,20.6,35.1,4.7,20.7,36.7,5.4,5.73,2.40,-23.1,26.0
2012-09-27 01:02:00,0.0,1.8853,0.0008,399.82,0.27,265.3,35.6,138.16,26.76,24.62,36.40,0.04,-272.75,-272.74,-38,559,-918,20.6,35.1,4.6,20.7,36.8,5.4,5.73,2.38,-23.1,26.0
2012-09-27 01:03:00,0.0,1.8856,0.0010,399.93,0.33,260.0,36.3,138.16,26.76,24.62,36.40,0.04,-272.75,-272.75,-38,559,-917,20.6,35.2,4.7,20.7,36.8,5.4,5.73,2.35,-23.1,26.0
2012-09-27 01:04:00,0.0,1.8858,0.0010,399.88,0.30,256.2,33.4,138.16,26.76,24.62,36.40,0.04,-272.75,-272.74,-39,559,-917,20.6,35.2,4.7,20.7,36.9,5.4,5.73,2.33,-23.1,26.0
2012-09-27 01:05:00,0.0,1.8854,0.0011,399.85,0.30,261.4,38.2,138.17,26.76,24.62,36.40,0.04,-272.75,-272.74,-39,559,-917,20.6,35.2,4.7,20.7,36.9,5.4,5.73,2.34,-23.1,26.0
2012-09-27 01:06:00,0.0,1.8853,0.0010,399.94,0.26,253.1,31.7,138.16,26.76,24.62,36.39,0.04,-272.75,-272.75,-39,559,-917,20.6,35.2,4.7,20.7,36.9,5.5,5.73,2.37,-23.1,26.0
2012-09-27 01:07:00,0.0,1.8848,0.0013,399.84,0.24,250.2,36.5,138.17,26.76,24.63,36.40,0.04,-272.75,-272.75,-39,559,-917,20.6,35.2,4.7,20.7,36.9,5.4,5.73,2.40,-23.1,26.0
2012-09-27 01:08:00,0.0,1.8859,0.0009,399.82,0.27,250.1,38.7,138.17,26.76,24.62,36.40,0.04,-272.75,-272.75,-39,559,-917,20.6,35.2,4.7,20.7,36.9,5.4,5.73,2.41,-23.1,26.0
2012-09-27 01:09:00,0.0,1.8857,0.0011,399.88,0.25,252.8,31.2,138.17,26.76,24.62,36.40,0.04,-272.74,-272.75,-39,559,-917,20.6,35.3,4.7,20.7,36.9,5.4,5.73,2.38,-23.1,26.0
2012-09-27 01:10:00,0.0,1.8859,0.0010,399.77,0.27,261.5,31.5,138.16,26.76,24.63,36.41,0.04,-272.75,-272.75,-39,559,-917,20.6,35.3,4.7,20.7,36.9,5.5,5.73,2.34,-23.1,26.0
2012-09-27 01:11:00,0.0,1.8858,0.0009,399.86,0.29,247.9,34.5,138.16,26.76,24.62,36.40,0.04,-272.74,-272.75,-38,559,-917,20.6,35.3,4.7,20.7,36.9,5.4,5.73,2.33,-23.1,26.0
2012-09-27 01:12:00,0.0,1.8861,0.0009,399.93,0.25,251.5,32.6,138.17,26.76,24.62,36.40,0.04,-272.74,-272.75,-38,560,-917,20.6,35.3,4.7,20.7,36.8,5.4,5.73,2.34,-23.1,26.0
2012-09-27 01:13:00,0.0,1.8858,0.0010,399.83,0.31,254.3,35.7,138.17,26.76,24.62,36.41,0.04,-272.75,-272.75,-38,559,-917,20.6,35.3,4.7,20.7,36.9,5.4,5.73,2.37,-23.1,26.0
2012-09-27 01:14:00,0.0,1.8845,0.0010,399.79,0.26,249.6,35.8,138.16,26.76,24.62,36.40,0.04,-272.75,-272.75,-39,560,-917,20.6,35.2,4.7,20.7,36.9,5.4,5.73,2.40,-23.1,26.0
2012-09-27 01:15:00,0.0,1.8849,0.0010,399.92,0.29,244.7,30.5,138.16,26.76,24.62,36.40,0.04,-272.75,-272.75,-39,559,-917,20.6,35.2,4.7,20.7,36.8,5.4,5.73,2.41,-23.1,26.0
2012-09-27 01:16:00,0.0,1.8847,0.0009,399.94,0.29,255.7,36.2,138.16,26.76,24.62,36.40,0.04,-272.74,-272.75,-39,559,-917,20.6,35.2,4.7,20.7,36.8,5.4,5.73,2.39,-23.1,26.0
2012-09-27 01:17:00,0.0,1.8856,0.0010,399.98,0.29,255.3,31.0,138.17,26.76,24.62,36.39,0.04,-272.75,-272.75,-39,559,-917,20.6,35.2,4.7,20.7,36.8,5.4,5.73,2.35,-23.1,26.0
2012-09-27 01:18:00,0.0,1.8854,0.0011,399.94,0.26,254.8,31.4,138.16,26.76,24.62,36.40,0.04,-272.74,-272.74,-39,559,-917,20.6,35.2,4.7,20.7,36.8,5.4,5.73,2.33,-23.2,25.9
2012-09-27 01:19:00,0.0,1.8851,0.0009,399.81,0.28,247.5,33.7,138.17,26.76,24.63,36.41,0.04,-272.74,-272.75,-39,559,-917,20.6,35.2,4.7,20.7,36.8,5.4,5.73,2.34,-23.2,25.9
2012-09-27 01:20:00,0.0,1.8863,0.0011,399.90,0.28,245.0,31.6,138.17,26.76,24.62,36.40,0.04,-272.75,-272.75,-39,560,-917,20.6,35.2,4.7,20.7,36.8,5.4,5.73,2.38,-23.2,26.0
2012-09-27 01:21:00,0.0,1.8854,0.0010,399.94,0.30,255.8,34.0,138.17,26.76,24.63,36.40,0.04,-272.75,-272.75,-39,559,-917,20.6,35.3,4.7,20.7,36.9,5.4,5.73,2.40,-23.2,26.0
2012-09-27 01:22:00,0.0,1.8849,0.0010,399.89,0.27,255.2,31.3,138.16,26.77,24.63,36.40,0.04,-272.75,-272.74,-38,559,-917,20.6,35.3,4.7,20.7,36.9,5.5,5.73,2.40,-23.1,26.0
2012-09-27 01:23:00,0.0,1.8851,0.0011,399.87,0.26,256.2,34.7,138.16,26.77,24.62,36.41,0.04,-272.75,-272.75,-38,559,-917,20.6,35.3,4.7,20.7,36.9,5.5,5.73,2.38,-23.1,26.0
2012-09-27 01:24:00,0.0,1.8852,0.0013,399.93,0.26,245.7,32.1,138.16,26.77,24.63,36.40,0.04,-272.75,-272.75,-38,559,-917,20.6,35.3,4.7,20.7,37.0,5.5,5.73,2.34,-23.1,26.0
2012-09-27 01:25:00,0.0,1.8863,0.0010,399.90,0.28,252.4,34.2,138.16,26.77,24.62,36.40,0.04,-272.74,-272.75,-38,559,-917,20.6,35.3,4.7,20.7,37.0,5.5,5.73,2.33,-23.1,26.0
2012-09-27 01:26:00,0.0,1.8859,0.0011,399.96,0.26,251.6,34.6,138.16,26.77,24.62,36.40,0.25,-271.05,-269.82,-38,559,-917,20.6,35.4,4.7,20.7,37.0,5.5,5.42,2.45,-27.6,26.0
2012-09-27 01:27:00,0.0,1.8861,0.0010,399.78,0.32,258.0,35.5,138.16,26.77,24.62,36.41,0.04,-272.74,-272.75,-38,559,-917,20.6,35.3,4.7,20.7,37.0,5.5,5.73,2.38,-23.1,26.0
2012-09-27 01:28:00,0.0,1.8849,0.0008,399.85,0.30,253.2,31.0,138.16,26.77,24.62,36.40,0.04,-272.74,-272.74,-39,559,-918,20.6,35.3,4.7,20.7,37.0,5.5,5.73,2.40,-23.1,26.0
2012-09-27 01:29:00,0.0,1.8859,0.0008,399.88,0.29,253.6,31.2,138.16,26.77,24.62,36.40,0.04,-272.75,-272.74,-39,559,-917,20.6,35.3,4.7,20.7,37.0,5.5,5.73,2.40,-23.1,26.0
2012-09-27 01:30:00,0.0,1.8861,0.0010,399.87,0.26,252.1,35.4,138.16,26.77,24.63,36.40,0.04,-272.75,-272.74,-39,559,-918,20.6,35.3,4.8,20.7,37.0,5.5,5.73,2.37,-23.1,26.0
2012-09-27 01:31:00,0.0,1.8861,0.0010,399.88,0.35,251.7,33.6,138.16,26.78,24.63,36.41,0.04,-272.74,-272.75,-39,559,-917,20.7,35.3,4.8,20.7,37.0,5.5,5.73,2.34,-23.1,26.0
2012-09-27 01:32:00,0.0,1.8866,0.0012,399.85,0.30,255.2,32.8,138.16,26.78,24.62,36.41,0.04,-272.75,-272.73,-39,559,-918,20.6,35.3,4.7,20.7,37.0,5.5,5.73,2.33,-23.1,26.0
2012-09-27 01:33:00,0.0,1.8866,0.0010,399.82,0.28,254.4,37.1,138.16,26.78,24.63,36.40,0.04,-272.75,-272.75,-39,560,-917,20.6,35.3,4.8,20.7,37.0,5.5,5.73,2.35,-23.1,26.0
2012-09-27 01:34:00,0.0,1.8872,0.0009,399.81,0.31,251.6,34.8,138.16,26.78,24.62,36.41,0.04,-272.75,-272.75,-38,559,-918,20.6,35.3,4.7,20.7,37.0,5.5,5.73,2.39,-23.1,26.0
2012-09-27 01:35:00,0.0,1.8862,0.0009,399.86,0.33,244.0,38.9,138.16,26.78,24.62,36.40,0.04,-272.74,-272.75,-38,559,-917,20.6,35.3,4.7,20.7,36.9,5.5,5.73,2.40,-23.1,26.0
2012-09-27 01:36:00,0.0,1.8869,0.0011,399.92,0.27,253.1,31.7,138.16,26.78,24.62,36.40,0.04,-272.74,-272.74,-38,559,-918,20.6,35.3,4.7,20.7,37.0,5.5,5.73,2.40,-23.1,26.0
2012-09-27 01:37:00,0.0,1.8859,0.0009,399.70,0.30,255.1,31.1,138.16,26.78,24.62,36.41,0.04,-272.75,-272.75,-38,560,-917,20.6,35.4,4.8,20.7,37.0,5.5,5.73,2.36,-23.1,26.0
2012-09-27 01:38:00,0.0,1.8859,0.0009,399.79,0.33,258.1,38.8,138.16,26.78,24.63,36.41,0.04,-272.75,-272.75,-39,559,-918,20.6,35.4,4.8,20.7,37.0,5.5,5.73,2.33,-23.1,26.0
2012-09-27 01:39:00,0.0,1.8860,0.0008,399.86,0.25,248.5,30.5,138.16,26.78,24.62,36.40,0.04,-272.74,-272.75,-39,559,-917,20.6,35.4,4.8,20.7,37.0,5.5,5.73,2.34,-23.1,26.0
"startDT [UTC]","vpos","CH4 [ppm]","stdev(CH4) [ppm]","CO2 [ppm]","stdev(CO2) [ppm]","H2O [ppm]","stdev(H2O)","p_LGR [torr]","T_LGR [C]","mt1_LGR [us]","mt2_LGR [us]","T_ECpre [C]","T_EC1 [C]","T_EC2 [C]","p_inlet [hPa]","p_in [hPa]","p_out [hPa]","T_inlet [C]","RH_inlet [%]","dwpt_inlet [C]","T_vent [C]","RH_vent [%]","dwpt_vent [C]","flow_vent [l min-1]","flow_inlet [l min-1]","dwpt_sample [C]","T_room [C]"
2012-09-27 01:43:00,0.0,1.8857,0.0010,399.78,0.26,251.0,30.8,138.16,26.79,24.62,36.41,0.04,-272.75,-272.75,-39,560,-917,20.6,35.4,4.8,20.7,37.1,5.5,5.73,2.38,-23.1,26.0
2012-09-27 01:44:00,0.0,1.8854,0.0009,399.76,0.30,256.2,37.3,138.16,26.79,24.63,36.41,0.04,-272.74,-272.74,-39,560,-918,20.6,35.5,4.8,20.7,37.2,5.6,5.73,2.35,-23.1,26.0
2012-09-27 01:45:00,0.0,1.8863,0.0009,399.76,0.27,253.5,37.2,138.16,26.79,24.62,36.41,0.04,-272.74,-272.75,-39,559,-917,20.6,35.5,4.8,20.7,37.1,5.5,5.73,2.34,-23.1,26.0
2012-09-27 01:46:00,0.0,1.8861,0.0009,399.87,0.23,254.8,35.4,138.16,26.79,24.63,36.40,0.04,-272.75,-272.74,-39,560,-917,20.6,35.5,4.8,20.7,37.1,5.6,5.73,2.34,-23.1,26.0
2012-09-27 01:47:00,0.0,1.8871,0.0009,399.76,0.27,252.8,39.1,138.16,26.79,24.62,36.41,0.04,-272.74,-272.74,-39,560,-917,20.6,35.6,4.8,20.7,37.2,5.6,5.73,2.37,-23.1,26.0
2012-09-27 01:48:00,0.0,1.8849,0.0012,399.79,0.28,255.6,35.3,138.16,26.79,24.62,36.40,0.04,-272.74,-272.75,-39,560,-918,20.6,35.5,4.8,20.7,37.1,5.5,5.73,2.39,-23.1,26.0
2012-09-27 01:49:00,0.0,1.8849,0.0009,399.73,0.28,251.2,34.8,138.16,26.79,24.62,36.41,0.04,-272.74,-272.75,-39,560,-917,20.6,35.4,4.7,20.7,37.0,5.5,5.73,2.41,-23.1,26.0
2012-09-27 01:50:00,0.0,1.8858,0.0011,399.73,0.23,261.3,38.5,138.16,26.79,24.63,36.41,0.04,-272.75,-272.75,-39,560,-918,20.6,35.3,4.7,20.7,36.9,5.5,5.73,2.38,-23.1,26.0
2012-09-27 01:51:00,0.0,1.8861,0.0013,399.86,0.23,258.7,31.7,138.16,26.78,24.63,36.40,0.04,-272.74,-272.75,-39,560,-917,20.6,35.4,4.7,20.7,37.0,5.5,5.73,2.35,-23.1,26.1
2012-09-27 01:52:00,0.0,1.8868,0.0011,399.78,0.25,253.0,38.5,138.16,26.78,24.63,36.41,0.04,-272.74,-272.74,-39,560,-918,20.6,35.4,4.8,20.7,37.0,5.5,5.73,2.33,-23.1,26.0
2012-09-27 01:53:00,0.0,1.8870,0.0010,399.81,0.21,255.4,33.6,138.16,26.78,24.62,36.40,0.04,-272.75,-272.74,-39,560,-917,20.6,35.4,4.8,20.7,37.0,5.5,5.73,2.34,-23.1,26.1
2012-09-27 01:54:00,0.0,1.8890,0.0016,399.91,0.31,253.4,35.6,138.16,26.78,24.62,36.40,0.04,-272.75,-272.74,-39,560,-918,20.6,35.4,4.8,20.7,37.0,5.5,5.73,2.36,-23.1,26.0
2012-09-27 01:55:00,0.0,1.8893,0.0009,399.87,0.26,254.4,39.9,138.17,26.79,24.62,36.40,0.04,-272.74,-272.75,-39,559,-917,20.6,35.5,4.8,20.7,37.2,5.6,5.73,2.40,-23.1,26.0
2012-09-27 01:56:00,0.0,1.8899,0.0012,399.93,0.23,248.6,33.9,138.16,26.79,24.62,36.40,0.04,-272.75,-272.74,-39,560,-918,20.6,35.6,4.9,20.7,37.2,5.6,5.73,2.40,-23.1,26.0
2012-09-27 01:57:00,0.0,1.8893,0.0010,399.90,0.25,253.5,39.3,138.16,26.79,24.62,36.40,0.04,-272.75,-272.75,-39,560,-917,20.6,35.6,4.9,20.7,37.3,5.6,5.73,2.37,-23.1,26.0
2012-09-27 01:58:00,0.0,1.8901,0.0014,399.90,0.27,254.5,36.5,138.16,26.79,24.62,36.41,0.04,-272.74,-272.75,-39,560,-917,20.6,35.6,4.9,20.7,37.3,5.6,5.73,2.34,-23.1,26.0
2012-09-27 01:59:00,0.0,1.8875,0.0012,399.85,0.26,248.2,33.1,138.16,26.79,24.63,36.40,0.04,-272.74,-272.74,-39,560,-917,20.6,35.6,4.9,20.7,37.2,5.6,5.73,2.33,-23.1,26.0
2012-09-27 02:00:00,0.0,1.8894,0.0010,399.81,0.28,256.2,31.1,138.16,26.79,24.62,36.41,0.04,-272.74,-272.74,-39,560,-917,20.7,35.5,4.9,20.7,37.2,5.6,5.73,2.35,-23.1,26.0
2012-09-27 02:01:00,0.0,1.8884,0.0008,399.87,0.27,255.1,36.4,138.16,26.80,24.62,36.40,0.04,-272.74,-272.75,-39,560,-917,20.6,35.5,4.8,20.7,37.2,5.6,5.73,2.39,-23.0,26.0
2012-09-27 02:02:00,0.0,1.8880,0.0010,399.87,0.30,253.0,37.9,138.16,26.80,24.62,36.40,0.04,-272.74,-272.75,-39,560,-917,20.7,35.4,4.8,20.7,37.1,5.5,5.73,2.40,-23.0,26.1
2012-09-27 02:03:00,0.0,1.8871,0.0010,399.83,0.26,263.7,31.7,138.16,26.80,24.62,36.40,0.04,-272.74,-272.75,-39,560,-918,20.6,35.4,4.8,20.7,37.1,5.5,5.73,2.39,-23.0,26.1
2012-09-27 02:04:00,0.0,1.8865,0.0009,399.72,0.25,246.2,35.2,138.16,26.80,24.62,36.40,0.04,-272.74,-272.75,-39,559,-917,20.7,35.4,4.8,20.7,37.1,5.5,5.73,2.36,-23.1,26.1
2012-09-27 02:05:00,0.0,1.8882,0.0012,399.78,0.28,251.2,33.8,138.16,26.81,24.62,36.41,0.04,-272.74,-272.75,-39,560,-918,20.6,35.4,4.8,20.8,37.1,5.6,5.73,2.33,-23.0,26.1
2012-09-27 02:06:00,0.0,1.8873,0.0008,399.81,0.25,252.6,36.3,138.16,26.81,24.62,36.41,0.04,-272.74,-272.75,-39,560,-917,20.6,35.5,4.8,20.8,37.2,5.6,5.73,2.34,-23.0,26.1
2012-09-27 02:07:00,0.0,1.8861,0.0010,399.81,0.36,265.3,35.3,138.16,26.81,24.62,36.40,0.04,-272.74,-272.75,-39,560,-917,20.6,35.4,4.8,20.7,37.1,5.6,5.73,2.37,-23.0,26.1
2012-09-27 02:08:00,0.0,1.8860,0.0009,399.78,0.29,253.9,43.0,138.16,26.81,24.62,36.40,0.04,-272.75,-272.74,-39,560,-917,20.6,35.4,4.8,20.8,37.1,5.6,5.73,2.40,-23.0,26.1
2012-09-27 02:09:00,0.0,1.8869,0.0009,399.80,0.28,259.7,39.4,138.16,26.81,24.62,36.40,0.04,-272.74,-272.75,-39,560,-917,20.7,35.4,4.8,20.8,37.1,5.6,5.73,2.40,-23.0,26.1
2012-09-27 02:10:00,0.0,1.8866,0.0012,399.76,0.27,254.3,33.3,138.16,26.81,24.63,36.41,0.04,-272.75,-272.75,-39,560,-917,20.7,35.4,4.8,20.8,37.1,5.6,5.73,2.38,-23.0,26.1
2012-09-27 02:11:00,0.0,1.8855,0.0010,399.74,0.29,254.8,34.7,138.16,26.81,24.62,36.40,0.04,-272.75,-272.75,-39,560,-917,20.6,35.4,4.8,20.8,37.1,5.6,5.73,2.34,-23.0,26.0
2012-09-27 02:12:00,0.0,1.8856,0.0010,399.78,0.22,255.1,38.4,138.16,26.81,24.62,36.40,0.04,-272.73,-272.74,-39,560,-917,20.6,35.4,4.8,20.7,37.0,5.5,5.73,2.32,-23.0,26.0
2012-09-27 02:13:00,0.0,1.8847,0.0008,399.69,0.21,251.7,34.6,138.16,26.81,24.62,36.41,0.04,-272.74,-272.74,-39,559,-917,20.7,35.3,4.8,20.8,37.0,5.5,5.73,2.35,-23.0,26.1
2012-09-27 02:14:00,0.0,1.8843,0.0011,399.64,0.27,254.1,32.8,138.16,26.81,24.63,36.40,0.04,-272.74,-272.75,-39,560,-917,20.6,35.2,4.7,20.8,36.8,5.5,5.73,2.38,-23.0,26.1
2012-09-27 02:15:00,0.0,1.8859,0.0010,399.69,0.27,264.4,37.6,138.16,26.81,24.63,36.40,0.04,-272.74,-272.75,-39,560,-917,20.6,35.1,4.7,20.8,36.8,5.4,5.73,2.41,-23.0,26.1
2012-09-27 02:16:00,0.0,1.8856,0.0009,399.66,0.30,254.1,34.4,138.16,26.81,24.62,36.41,0.04,-272.75,-272.75,-39,560,-917,20.7,35.1,4.7,20.8,36.8,5.5,5.73,2.39,-23.0,26.1
2012-09-27 02:17:00,0.0,1.8863,0.0009,399.65,0.26,255.7,34.1,138.16,26.81,24.63,36.41,0.04,-272.74,-272.74,-39,560,-917,20.7,35.1,4.7,20.8,36.7,5.4,5.73,2.36,-23.0,26.1
2012-09-27 02:18:00,0.0,1.8860,0.0009,399.68,0.28,257.6,34.8,138.16,26.82,24.63,36.40,0.04,-272.74,-272.75,-39,560,-917,20.7,35.1,4.7,20.8,36.8,5.5,5.73,2.33,-23.0,26.1
2012-09-27 02:19:00,0.0,1.8866,0.0010,399.72,0.26,259.8,33.4,138.16,26.82,24.62,36.40,0.04,-272.74,-272.74,-39,560,-918,20.7,35.1,4.7,20.8,36.7,5.4,5.73,2.33,-23.0,26.1